This is the latest recevied weather packets stored in our database for station/object DO8TBO-15. If no packets are shown the sender has not sent any weather packets the latest 10 day(s).
| Time | Temp. | Humidity | Pressure | Rain* | Wind** | Luminosity | Snow |
|---|---|---|---|---|---|---|---|
| 1777161918 | 5° C | - | 1018.9 hPa | 0 mm | - | - | - |
| 1777161375 | 5° C | - | 1018.9 hPa | 0 mm | - | - | - |
| 1777160771 | 5° C | - | 1018.8 hPa | 0 mm | - | - | - |
| 1777160167 | 5° C | - | 1018.7 hPa | 0 mm | - | - | - |
| 1777159564 | 5° C | - | 1018.6 hPa | 0 mm | - | - | - |
| 1777158960 | 4.44° C | - | 1018.6 hPa | 0 mm | - | - | - |
| 1777158356 | 4.44° C | - | 1018.6 hPa | 0 mm | - | - | - |
| 1777157753 | 5° C | - | 1018.6 hPa | 0 mm | - | - | - |
| 1777157149 | 5° C | - | 1018.5 hPa | 0 mm | - | - | - |
| 1777156545 | 5° C | - | 1018.4 hPa | 0 mm | - | - | - |
| 1777155942 | 5.56° C | - | 1018.3 hPa | 0 mm | - | - | - |
| 1777155337 | 6.11° C | - | 1018 hPa | 0 mm | - | - | - |
| 1777154734 | 6.67° C | - | 1017.9 hPa | 0 mm | - | - | - |
| 1777154130 | 6.67° C | - | 1017.9 hPa | 0 mm | - | - | - |
| 1777153526 | 7.22° C | - | 1017.8 hPa | 0 mm | - | - | - |
| 1777152923 | 7.22° C | - | 1017.8 hPa | 0 mm | - | - | - |
| 1777152319 | 7.22° C | - | 1017.7 hPa | 0 mm | - | - | - |
| 1777151775 | 7.22° C | - | 1017.7 hPa | 0 mm | - | - | - |
| 1777151171 | 7.78° C | - | 1017.5 hPa | 0 mm | - | - | - |
| 1777150568 | 8.89° C | - | 1017.4 hPa | 0 mm | - | - | - |
| 1777149963 | 9.44° C | - | 1017.3 hPa | 0 mm | - | - | - |
| 1777149359 | 9.44° C | - | 1017.3 hPa | 0 mm | - | - | - |
| 1777148756 | 10° C | - | 1017.2 hPa | 0 mm | - | - | - |
| 1777148152 | 11.11° C | - | 1017.2 hPa | 0 mm | - | - | - |
| 1777147548 | 11.67° C | - | 1016.9 hPa | 0 mm | - | - | - |
* Rain latest hour (hover to see other rain measurements)
** Current wind speed in m/s (hover to see current wind gust speed)